When you browse on this site, cookies collect data to enhance your experience and personalize the content and advertising you see.
Visit our Privacy Policy to learn more. By continuing to use the site, you agree to this use of cookies and data.
  • en Belgique
  • Liste des pays
  • À 7 jours
  • Température de l'eau
  • Carte météo
  • Widgets météo
  • user-avatar
    Se connecter

    Météo par heure à Djelfa

    Ce jour, 19 Septembre, Jeudi

    Heure Température Précipitation Vent Pression Humidité
    00:00 +26°C° 0 mm 6 m/s 667 mmHg 36%
    01:00 +25°C° 0 mm 5 m/s 667 mmHg 36%
    02:00 +25°C° 0 mm 4 m/s 667 mmHg 35%
    03:00 +25°C° 0 mm 4 m/s 667 mmHg 35%
    04:00 +23°C° 0 mm 4 m/s 667 mmHg 48%
    05:00 +21°C° 0 mm 4 m/s 667 mmHg 60%
    06:00 +20°C° 0 mm 4 m/s 667 mmHg 73%
    07:00 +22°C° 0 mm 4 m/s 667 mmHg 61%
    08:00 +25°C° 0 mm 3 m/s 668 mmHg 49%
    09:00 +27°C° 0 mm 3 m/s 669 mmHg 36%
    10:00 +29°C° 0 mm 5 m/s 669 mmHg 31%
    11:00 +30°C° 0 mm 7 m/s 669 mmHg 26%
    12:00 +32°C° 0 mm 9 m/s 669 mmHg 21%
    13:00 +32°C° 0 mm 8 m/s 668 mmHg 20%
    14:00 +32°C° 0 mm 8 m/s 668 mmHg 20%
    15:00 +33°C° 0 mm 8 m/s 668 mmHg 19%
    16:00 +32°C° 0 mm 7 m/s 667 mmHg 20%
    17:00 +30°C° 0 mm 7 m/s 667 mmHg 21%
    18:00 +29°C° 0 mm 6 m/s 667 mmHg 22%
    19:00 +29°C° 0 mm 6 m/s 667 mmHg 22%
    20:00 +28°C° 0 mm 6 m/s 668 mmHg 23%
    21:00 +28°C° 0 mm 6 m/s 668 mmHg 23%
    22:00 +27°C° 0 mm 6 m/s 668 mmHg 24%
    23:00 +27°C° 0 mm 5 m/s 668 mmHg 24%

    Demain, 20 Septembre, Vendredi

    Heure Température Précipitation Vent Pression Humidité
    00:00 +26°C° 0 mm 5 m/s 667 mmHg 25%
    01:00 +26°C° 0 mm 5 m/s 667 mmHg 25%
    02:00 +26°C° 0 mm 5 m/s 667 mmHg 24%
    03:00 +25°C° 0 mm 5 m/s 667 mmHg 24%
    04:00 +25°C° 0 mm 4 m/s 666 mmHg 25%
    05:00 +23°C° 0 mm 4 m/s 666 mmHg 27%
    06:00 +24°C° 0 mm 3 m/s 666 mmHg 28%
    07:00 +26°C° 0 mm 4 m/s 667 mmHg 25%
    08:00 +28°C° 0 mm 5 m/s 668 mmHg 22%
    09:00 +30°C° 0 mm 6 m/s 669 mmHg 20%
    10:00 +32°C° 0 mm 7 m/s 669 mmHg 19%
    11:00 +32°C° 0 mm 7 m/s 668 mmHg 19%
    12:00 +33°C° 0 mm 7 m/s 668 mmHg 18%
    13:00 +34°C° 0 mm 7 m/s 668 mmHg 17%
    14:00 +34°C° 0 mm 7 m/s 668 mmHg 17%
    15:00 +34°C° 0 mm 7 m/s 668 mmHg 16%
    16:00 +33°C° 0 mm 6 m/s 667 mmHg 18%
    17:00 +32°C° 0 mm 5 m/s 667 mmHg 20%
    18:00 +30°C° 0 mm 4 m/s 667 mmHg 22%
    19:00 +29°C° 0.2 mm 4 m/s 667 mmHg 25%
    20:00 +28°C° 0.2 mm 4 m/s 667 mmHg 28%
    21:00 +27°C° 0.2 mm 4 m/s 667 mmHg 31%
    22:00 +27°C° 0 mm 4 m/s 667 mmHg 32%
    23:00 +27°C° 0 mm 5 m/s 667 mmHg 32%

    Après-demain, 21 Septembre, Samedi

    Heure Température Précipitation Vent Pression Humidité
    00:00 +26°C° 0 mm 5 m/s 667 mmHg 33%
    01:00 +26°C° 0 mm 5 m/s 666 mmHg 34%
    02:00 +25°C° 0 mm 5 m/s 666 mmHg 35%
    03:00 +25°C° 0 mm 5 m/s 666 mmHg 36%
    04:00 +23°C° 0 mm 4 m/s 666 mmHg 37%
    05:00 +24°C° 0 mm 3 m/s 666 mmHg 39%
    06:00 +23°C° 0 mm 2 m/s 666 mmHg 41%
    07:00 +25°C° 0 mm 4 m/s 667 mmHg 35%
    08:00 +27°C° 0 mm 6 m/s 668 mmHg 29%
    09:00 +29°C° 0 mm 8 m/s 668 mmHg 23%
    10:00 +31°C° 0 mm 8 m/s 668 mmHg 22%
    11:00 +32°C° 0 mm 9 m/s 668 mmHg 21%
    12:00 +33°C° 0 mm 10 m/s 668 mmHg 19%
    13:00 +34°C° 0 mm 9 m/s 667 mmHg 17%
    14:00 +34°C° 0 mm 9 m/s 667 mmHg 15%
    15:00 +35°C° 0 mm 9 m/s 666 mmHg 14%
    16:00 +34°C° 0 mm 8 m/s 666 mmHg 15%
    17:00 +33°C° 0 mm 6 m/s 666 mmHg 16%
    18:00 +32°C° 0 mm 5 m/s 666 mmHg 17%
    19:00 +30°C° 0 mm 4 m/s 666 mmHg 18%
    20:00 +30°C° 0 mm 4 m/s 666 mmHg 19%
    21:00 +29°C° 0 mm 3 m/s 667 mmHg 21%
    22:00 +28°C° 0 mm 2 m/s 666 mmHg 22%
    23:00 +28°C° 0 mm 2 m/s 666 mmHg 23%

    22 Septembre, Dimanche

    Heure Température Précipitation Vent Pression Humidité
    00:00 +27°C° 0 mm 1 m/s 666 mmHg 25%
    01:00 +27°C° 0 mm 2 m/s 666 mmHg 24%
    02:00 +27°C° 0 mm 3 m/s 666 mmHg 24%
    03:00 +26°C° 0 mm 3 m/s 666 mmHg 23%
    04:00 +26°C° 0 mm 5 m/s 666 mmHg 23%
    05:00 +26°C° 0 mm 6 m/s 666 mmHg 23%
    06:00 +26°C° 0 mm 7 m/s 666 mmHg 24%
    07:00 +27°C° 0 mm 7 m/s 666 mmHg 23%
    08:00 +28°C° 0 mm 8 m/s 667 mmHg 22%
    09:00 +29°C° 0 mm 8 m/s 668 mmHg 21%
    10:00 +31°C° 0 mm 8 m/s 668 mmHg 22%
    11:00 +31°C° 0 mm 8 m/s 667 mmHg 23%
    12:00 +32°C° 0 mm 8 m/s 667 mmHg 23%
    13:00 +33°C° 0 mm 8 m/s 667 mmHg 21%
    14:00 +33°C° 0 mm 7 m/s 667 mmHg 18%
    15:00 +34°C° 0 mm 7 m/s 667 mmHg 16%
    16:00 +33°C° 0 mm 6 m/s 667 mmHg 18%
    17:00 +32°C° 0 mm 5 m/s 667 mmHg 20%
    18:00 +30°C° 0 mm 4 m/s 667 mmHg 21%
    19:00 +30°C° 0 mm 5 m/s 667 mmHg 23%
    20:00 +29°C° 0 mm 5 m/s 668 mmHg 24%
    21:00 +28°C° 0 mm 6 m/s 668 mmHg 25%
    22:00 +27°C° 0 mm 4 m/s 668 mmHg 30%
    23:00 +26°C° 0 mm 3 m/s 667 mmHg 36%

    23 Septembre, Lundi

    Heure Température Précipitation Vent Pression Humidité
    00:00 +25°C° 0 mm 2 m/s 667 mmHg 41%
    01:00 +24°C° 0 mm 1 m/s 667 mmHg 45%
    02:00 +23°C° 0 mm 1 m/s 667 mmHg 48%
    03:00 +22°C° 0 mm 1 m/s 666 mmHg 51%
    04:00 +22°C° 0 mm 1 m/s 666 mmHg 54%
    05:00 +22°C° 0 mm 1 m/s 666 mmHg 56%
    06:00 +22°C° 0 mm 1 m/s 666 mmHg 58%
    07:00 +23°C° 0 mm 1 m/s 667 mmHg 50%
    08:00 +25°C° 0 mm 1 m/s 668 mmHg 41%
    09:00 +27°C° 0 mm 1 m/s 669 mmHg 33%
    10:00 +29°C° 0 mm 2 m/s 669 mmHg 29%
    11:00 +31°C° 0 mm 3 m/s 669 mmHg 24%
    12:00 +33°C° 0 mm 4 m/s 669 mmHg 20%
    13:00 +33°C° 0 mm 4 m/s 669 mmHg 20%
    14:00 +34°C° 0 mm 4 m/s 669 mmHg 21%
    15:00 +34°C° 0 mm 4 m/s 668 mmHg 21%
    16:00 +33°C° 0 mm 4 m/s 668 mmHg 25%
    17:00 +30°C° 0 mm 3 m/s 668 mmHg 29%
    18:00 +29°C° 0 mm 3 m/s 668 mmHg 33%
    19:00 +28°C° 0 mm 3 m/s 668 mmHg 36%
    20:00 +27°C° 0 mm 2 m/s 668 mmHg 39%
    21:00 +26°C° 0 mm 2 m/s 669 mmHg 41%
    22:00 +26°C° 0 mm 2 m/s 669 mmHg 42%
    23:00 +25°C° 0 mm 2 m/s 668 mmHg 43%

    24 Septembre, Mardi

    Heure Température Précipitation Vent Pression Humidité
    00:00 +25°C° 0 mm 2 m/s 668 mmHg 45%
    01:00 +24°C° 0 mm 1 m/s 668 mmHg 46%
    02:00 +24°C° 0 mm 1 m/s 668 mmHg 48%
    03:00 +21°C° 0 mm 0 m/s 667 mmHg 49%
    04:00 +23°C° 0 mm 1 m/s 667 mmHg 50%
    05:00 +23°C° 0 mm 1 m/s 667 mmHg 51%
    06:00 +23°C° 0 mm 1 m/s 667 mmHg 51%
    07:00 +24°C° 0 mm 1 m/s 668 mmHg 46%
    08:00 +26°C° 0 mm 1 m/s 668 mmHg 40%
    09:00 +28°C° 0 mm 1 m/s 669 mmHg 35%
    10:00 +29°C° 0 mm 1 m/s 669 mmHg 31%
    11:00 +31°C° 0 mm 2 m/s 669 mmHg 27%
    12:00 +33°C° 0 mm 3 m/s 670 mmHg 23%
    13:00 +34°C° 0 mm 3 m/s 669 mmHg 22%
    14:00 +34°C° 0 mm 4 m/s 669 mmHg 21%
    15:00 +35°C° 0 mm 5 m/s 668 mmHg 20%
    16:00 +33°C° 0 mm 4 m/s 668 mmHg 23%
    17:00 +32°C° 0 mm 4 m/s 668 mmHg 27%
    18:00 +29°C° 0 mm 4 m/s 668 mmHg 30%
    19:00 +29°C° 0 mm 3 m/s 668 mmHg 32%
    20:00 +28°C° 0 mm 2 m/s 668 mmHg 35%
    21:00 +27°C° 0 mm 2 m/s 668 mmHg 37%
    22:00 +26°C° 0 mm 2 m/s 668 mmHg 38%
    23:00 +26°C° 0 mm 1 m/s 668 mmHg 40%
    Voir plus